Time,TemperatureF,DewpointF,PressureIn,WindDirection,WindDirectionDegrees,WindSpeedMPH,WindSpeedGustMPH,Humidity,HourlyPrecipIn,Conditions,Clouds,dailyrainin,SoftwareType,DateUTC
2013-02-01 00:01:00,36.0,27.5,31.16,SSW,208,0.0,0.0,71,0.00,,---,0.00,VWS V14.01,2013-02-01 08:01:00,
2013-02-01 00:06:00,35.9,27.4,31.16,SSW,205,0.0,0.0,71,0.00,,---,0.00,VWS V14.01,2013-02-01 08:06:00,
2013-02-01 00:11:00,35.5,27.0,31.16,SSW,205,0.0,0.0,71,0.00,,---,0.00,VWS V14.01,2013-02-01 08:11:00,
2013-02-01 00:16:00,35.2,27.1,31.16,SSW,201,0.0,0.0,72,0.00,,---,0.00,VWS V14.01,2013-02-01 08:16:00,
2013-02-01 00:22:00,34.9,26.8,31.16,SSW,202,0.0,0.0,72,0.00,,---,0.00,VWS V14.01,2013-02-01 08:22:00,
2013-02-01 00:27:00,34.7,26.6,31.16,SSW,199,0.0,0.0,72,0.00,,---,0.00,VWS V14.01,2013-02-01 08:27:00,
2013-02-01 00:32:00,34.6,26.9,31.16,SSW,202,0.0,0.0,73,0.00,,---,0.00,VWS V14.01,2013-02-01 08:32:00,
2013-02-01 00:37:00,34.4,27.0,31.15,SSW,202,0.0,0.0,74,0.00,,---,0.00,VWS V14.01,2013-02-01 08:37:00,
2013-02-01 00:42:00,34.4,27.0,31.15,SSW,202,0.0,0.0,74,0.00,,---,0.00,VWS V14.01,2013-02-01 08:42:00,
2013-02-01 00:47:00,34.6,27.2,31.16,SSW,204,0.0,0.0,74,0.00,,---,0.00,VWS V14.01,2013-02-01 08:47:00,
2013-02-01 00:52:00,34.6,27.2,31.16,SSW,200,0.0,0.0,74,0.00,,---,0.00,VWS V14.01,2013-02-01 08:52:00,
2013-02-01 00:57:00,34.7,27.3,31.16,SSW,198,0.0,0.0,74,0.00,,---,0.00,VWS V14.01,2013-02-01 08:57:00,
2013-02-01 01:03:00,34.9,27.5,31.16,SSW,203,0.0,0.0,74,0.00,,---,0.00,VWS V14.01,2013-02-01 09:03:00,
2013-02-01 01:08:00,34.9,27.5,31.15,SSW,203,0.0,0.0,74,0.00,,---,0.00,VWS V14.01,2013-02-01 09:08:00,
2013-02-01 01:13:00,34.9,27.5,31.15,SSW,202,0.0,0.0,74,0.00,,---,0.00,VWS V14.01,2013-02-01 09:13:00,
2013-02-01 01:18:00,34.7,27.3,31.15,SSW,201,0.0,0.0,74,0.00,,---,0.00,VWS V14.01,2013-02-01 09:18:00,
2013-02-01 01:23:00,34.6,27.2,31.15,SSW,201,0.0,0.0,74,0.00,,---,0.00,VWS V14.01,2013-02-01 09:23:00,
2013-02-01 01:28:00,34.6,27.2,31.15,SSW,201,0.0,0.0,74,0.00,,---,0.00,VWS V14.01,2013-02-01 09:28:00,
2013-02-01 01:33:00,34.4,27.0,31.15,SSW,201,0.0,0.0,74,0.00,,---,0.00,VWS V14.01,2013-02-01 09:33:00,
2013-02-01 01:38:00,34.4,27.0,31.15,SSW,201,0.0,0.0,74,0.00,,---,0.00,VWS V14.01,2013-02-01 09:38:00,
2013-02-01 01:43:00,34.3,26.6,31.15,SSW,200,0.0,0.0,73,0.00,,---,0.00,VWS V14.01,2013-02-01 09:43:00,
2013-02-01 01:48:00,34.0,26.6,31.15,SSW,198,0.0,0.0,74,0.00,,---,0.00,VWS V14.01,2013-02-01 09:48:00,
2013-02-01 01:53:00,33.8,26.7,31.15,SSW,201,0.0,0.0,75,0.00,,---,0.00,VWS V14.01,2013-02-01 09:53:00,
2013-02-01 01:58:00,33.7,26.6,31.15,SSW,212,0.0,0.0,75,0.00,,---,0.00,VWS V14.01,2013-02-01 09:58:00,
2013-02-01 02:03:00,33.4,26.7,31.14,SSW,211,0.0,0.0,76,0.00,,---,0.00,VWS V14.01,2013-02-01 10:03:00,
2013-02-01 02:09:00,33.1,26.4,31.15,SW,219,0.0,0.0,76,0.00,,---,0.00,VWS V14.01,2013-02-01 10:09:00,
2013-02-01 02:13:00,32.9,26.5,31.15,SW,221,0.0,0.0,77,0.00,,---,0.00,VWS V14.01,2013-02-01 10:13:00,
2013-02-01 02:19:00,32.8,26.4,31.15,SSW,213,0.0,0.0,77,0.00,,---,0.00,VWS V14.01,2013-02-01 10:19:00,
2013-02-01 02:24:00,32.8,26.7,31.15,SSW,202,0.0,0.0,78,0.00,,---,0.00,VWS V14.01,2013-02-01 10:24:00,
2013-02-01 02:29:00,32.8,26.7,31.15,SSW,206,0.0,0.0,78,0.00,,---,0.00,VWS V14.01,2013-02-01 10:29:00,
2013-02-01 02:34:00,32.9,27.1,31.15,SSW,201,0.0,0.0,79,0.00,,---,0.00,VWS V14.01,2013-02-01 10:34:00,
2013-02-01 02:39:00,33.1,27.3,31.15,SSW,199,0.0,0.0,79,0.00,,---,0.00,VWS V14.01,2013-02-01 10:39:00,
2013-02-01 02:44:00,33.2,27.4,31.15,SSW,200,0.0,0.0,79,0.00,,---,0.00,VWS V14.01,2013-02-01 10:44:00,
2013-02-01 02:49:00,33.2,27.4,31.15,SSW,207,0.0,0.0,79,0.00,,---,0.00,VWS V14.01,2013-02-01 10:49:00,
2013-02-01 02:54:00,33.1,27.3,31.15,SSW,205,0.0,0.0,79,0.00,,---,0.00,VWS V14.01,2013-02-01 10:54:00,
2013-02-01 02:59:00,32.9,27.1,31.15,SSW,207,0.0,0.0,79,0.00,,---,0.00,VWS V14.01,2013-02-01 10:59:00,
2013-02-01 03:05:00,32.9,27.1,31.15,SSW,207,0.0,0.0,79,0.00,,---,0.00,VWS V14.01,2013-02-01 11:05:00,
2013-02-01 03:10:00,32.9,27.1,31.15,SSW,202,0.0,0.0,79,0.00,,---,0.00,VWS V14.01,2013-02-01 11:10:00,
2013-02-01 03:15:00,32.9,27.1,31.15,SSW,207,0.0,0.0,79,0.00,,---,0.00,VWS V14.01,2013-02-01 11:15:00,
2013-02-01 03:20:00,32.9,27.1,31.15,SSW,208,0.0,0.0,79,0.00,,---,0.00,VWS V14.01,2013-02-01 11:20:00,
2013-02-01 03:25:00,32.9,27.4,31.15,SSW,211,0.0,0.0,80,0.00,,---,0.00,VWS V14.01,2013-02-01 11:25:00,
2013-02-01 03:30:00,33.1,27.6,31.15,SSW,200,0.0,0.0,80,0.00,,---,0.00,VWS V14.01,2013-02-01 11:30:00,
2013-02-01 03:35:00,33.2,28.0,31.15,SSW,209,0.0,0.0,81,0.00,,---,0.00,VWS V14.01,2013-02-01 11:35:00,
2013-02-01 03:40:00,33.2,28.0,31.15,SW,215,0.0,0.0,81,0.00,,---,0.00,VWS V14.01,2013-02-01 11:40:00,
2013-02-01 03:45:00,33.2,27.7,31.15,SSW,205,0.0,0.0,80,0.00,,---,0.00,VWS V14.01,2013-02-01 11:45:00,
2013-02-01 03:51:00,33.1,27.3,31.15,SW,214,0.0,0.0,79,0.00,,---,0.00,VWS V14.01,2013-02-01 11:51:00,
2013-02-01 03:56:00,32.9,27.1,31.15,SSW,197,0.0,0.0,79,0.00,,---,0.00,VWS V14.01,2013-02-01 11:56:00,
2013-02-01 04:01:00,32.8,27.0,31.15,SSW,208,0.0,0.0,79,0.00,,---,0.00,VWS V14.01,2013-02-01 12:01:00,
2013-02-01 04:06:00,32.8,27.0,31.15,SSW,201,0.0,0.0,79,0.00,,---,0.00,VWS V14.01,2013-02-01 12:06:00,
2013-02-01 04:11:00,32.8,27.3,31.15,SW,218,0.0,0.0,80,0.00,,---,0.00,VWS V14.01,2013-02-01 12:11:00,
2013-02-01 04:16:00,32.8,27.3,31.15,SSW,204,0.0,0.0,80,0.00,,---,0.00,VWS V14.01,2013-02-01 12:16:00,
2013-02-01 04:21:00,32.8,27.6,31.15,South,190,0.0,0.0,81,0.00,,---,0.00,VWS V14.01,2013-02-01 12:21:00,
2013-02-01 04:26:00,32.8,27.6,31.15,SSW,194,0.0,0.0,81,0.00,,---,0.00,VWS V14.01,2013-02-01 12:26:00,
2013-02-01 04:32:00,32.8,27.9,31.15,SW,219,0.0,0.0,82,0.00,,---,0.00,VWS V14.01,2013-02-01 12:32:00,
2013-02-01 04:37:00,32.8,27.6,31.15,SW,224,0.0,0.0,81,0.00,,---,0.00,VWS V14.01,2013-02-01 12:37:00,
2013-02-01 04:42:00,32.7,27.2,31.15,SSW,203,0.0,0.0,80,0.00,,---,0.00,VWS V14.01,2013-02-01 12:42:00,
2013-02-01 04:47:00,32.5,27.3,31.15,SSW,198,0.0,0.0,81,0.00,,---,0.00,VWS V14.01,2013-02-01 12:47:00,
2013-02-01 04:52:00,32.5,27.6,31.15,SSW,207,0.0,0.0,82,0.00,,---,0.00,VWS V14.01,2013-02-01 12:52:00,
2013-02-01 04:57:00,32.5,27.3,31.15,SSW,205,0.0,0.0,81,0.00,,---,0.00,VWS V14.01,2013-02-01 12:57:00,
2013-02-01 05:02:00,32.5,27.3,31.15,SSW,209,0.0,0.0,81,0.00,,---,0.00,VWS V14.01,2013-02-01 13:02:00,
2013-02-01 05:07:00,32.7,27.5,31.13,SW,221,0.0,0.0,81,0.00,,---,0.00,VWS V14.01,2013-02-01 13:07:00,
2013-02-01 05:12:00,32.7,27.5,31.13,SSW,202,0.0,0.0,81,0.00,,---,0.00,VWS V14.01,2013-02-01 13:12:00,
2013-02-01 05:17:00,32.8,27.6,31.13,SSW,207,0.0,0.0,81,0.00,,---,0.00,VWS V14.01,2013-02-01 13:17:00,
2013-02-01 05:23:00,32.8,27.3,31.12,SSW,213,0.0,0.0,80,0.00,,---,0.00,VWS V14.01,2013-02-01 13:23:00,
2013-02-01 05:28:00,32.7,27.2,31.12,SSW,201,0.0,0.0,80,0.00,,---,0.00,VWS V14.01,2013-02-01 13:28:00,
2013-02-01 05:33:00,32.4,26.6,31.12,SSW,209,0.0,0.0,79,0.00,,---,0.00,VWS V14.01,2013-02-01 13:33:00,
2013-02-01 05:38:00,31.8,26.0,31.12,SSW,206,0.0,0.0,79,0.00,,---,0.00,VWS V14.01,2013-02-01 13:38:00,
2013-02-01 05:43:00,30.9,25.2,31.11,SSW,202,0.0,0.0,79,0.00,,---,0.00,VWS V14.01,2013-02-01 13:43:00,
2013-02-01 05:48:00,29.8,24.4,31.11,SSW,194,0.0,0.0,80,0.00,,---,0.00,VWS V14.01,2013-02-01 13:48:00,
2013-02-01 05:53:00,29.1,24.3,31.10,SSW,201,0.0,0.0,82,0.00,,---,0.00,VWS V14.01,2013-02-01 13:53:00,
2013-02-01 05:58:00,28.7,24.2,31.10,SSW,205,0.0,0.0,83,0.00,,---,0.00,VWS V14.01,2013-02-01 13:58:00,
2013-02-01 06:03:00,28.5,24.3,31.10,SSW,201,0.0,0.0,84,0.00,,---,0.00,VWS V14.01,2013-02-01 14:03:00,
2013-02-01 06:08:00,28.4,24.2,31.10,SSW,202,0.0,0.0,84,0.00,,---,0.00,VWS V14.01,2013-02-01 14:08:00,
2013-02-01 06:13:00,28.2,24.0,31.10,SSW,211,0.0,0.0,84,0.00,,---,0.00,VWS V14.01,2013-02-01 14:13:00,
2013-02-01 06:18:00,27.9,24.0,31.10,SSW,194,0.0,0.0,85,0.00,,---,0.00,VWS V14.01,2013-02-01 14:18:00,
2013-02-01 06:23:00,27.8,23.9,31.10,South,186,0.0,0.0,85,0.00,,---,0.00,VWS V14.01,2013-02-01 14:23:00,
2013-02-01 06:29:00,27.5,23.6,31.10,SSW,194,0.0,0.0,85,0.00,,---,0.00,VWS V14.01,2013-02-01 14:29:00,
2013-02-01 06:34:00,27.2,23.3,31.09,South,178,0.0,0.0,85,0.00,,---,0.00,VWS V14.01,2013-02-01 14:34:00,
2013-02-01 06:39:00,27.0,23.1,31.09,SSW,201,0.0,0.0,85,0.00,,---,0.00,VWS V14.01,2013-02-01 14:39:00,
2013-02-01 06:44:00,26.9,23.3,31.09,SSW,211,0.0,0.0,86,0.00,,---,0.00,VWS V14.01,2013-02-01 14:44:00,
2013-02-01 06:49:00,26.7,23.1,31.09,SSW,194,0.0,0.0,86,0.00,,---,0.00,VWS V14.01,2013-02-01 14:49:00,
2013-02-01 06:54:00,26.6,23.0,31.09,SSW,202,0.0,0.0,86,0.00,,---,0.00,VWS V14.01,2013-02-01 14:54:00,
2013-02-01 06:59:00,26.4,22.8,31.09,SSW,202,0.0,0.0,86,0.00,,---,0.00,VWS V14.01,2013-02-01 14:59:00,
2013-02-01 07:04:00,26.1,22.5,31.08,SSW,202,0.0,0.0,86,0.00,,---,0.00,VWS V14.01,2013-02-01 15:04:00,
2013-02-01 07:09:00,26.0,22.7,31.08,SSW,204,0.0,0.0,87,0.00,,---,0.00,VWS V14.01,2013-02-01 15:09:00,
2013-02-01 07:14:00,25.8,22.5,31.08,SSW,212,0.0,0.0,87,0.00,,---,0.00,VWS V14.01,2013-02-01 15:14:00,
2013-02-01 07:19:00,26.0,22.9,31.08,SSW,195,0.0,0.0,88,0.00,,---,0.00,VWS V14.01,2013-02-01 15:19:00,
2013-02-01 07:25:00,26.0,22.9,31.08,SSW,199,0.0,0.0,88,0.00,,---,0.00,VWS V14.01,2013-02-01 15:25:00,
2013-02-01 07:30:00,26.0,22.9,31.08,SSW,195,0.0,0.0,88,0.00,,---,0.00,VWS V14.01,2013-02-01 15:30:00,
2013-02-01 07:35:00,26.3,23.2,31.08,SSW,208,0.0,0.0,88,0.00,,---,0.00,VWS V14.01,2013-02-01 15:35:00,
2013-02-01 07:40:00,26.4,23.3,31.08,South,184,0.0,0.0,88,0.00,,---,0.00,VWS V14.01,2013-02-01 15:40:00,
2013-02-01 07:45:00,26.6,23.5,31.09,SSW,193,0.0,0.0,88,0.00,,---,0.00,VWS V14.01,2013-02-01 15:45:00,
2013-02-01 07:50:00,26.7,23.9,31.09,SSW,202,0.0,0.0,89,0.00,,---,0.00,VWS V14.01,2013-02-01 15:50:00,
2013-02-01 07:55:00,27.0,24.2,31.09,SSW,207,0.0,0.0,89,0.00,,---,0.00,VWS V14.01,2013-02-01 15:55:00,
2013-02-01 08:00:00,27.3,24.5,31.09,SSW,194,0.0,0.0,89,0.00,,---,0.00,VWS V14.01,2013-02-01 16:00:00,
2013-02-01 08:05:00,27.6,24.8,31.09,SSW,197,0.0,0.0,89,0.00,,---,0.00,VWS V14.01,2013-02-01 16:05:00,
2013-02-01 08:10:00,27.9,24.8,31.09,SSW,204,0.0,0.0,88,0.00,,---,0.00,VWS V14.01,2013-02-01 16:10:00,
2013-02-01 08:15:00,28.4,25.3,31.09,SSW,195,0.0,0.0,88,0.00,,---,0.00,VWS V14.01,2013-02-01 16:15:00,
2013-02-01 08:20:00,28.7,25.6,31.09,SSW,202,0.0,0.0,88,0.00,,---,0.00,VWS V14.01,2013-02-01 16:20:00,
2013-02-01 08:25:00,29.0,25.6,31.09,SSW,196,0.0,0.0,87,0.00,,---,0.00,VWS V14.01,2013-02-01 16:25:00,
2013-02-01 08:31:00,29.3,25.6,31.09,SSW,212,0.0,0.0,86,0.00,,---,0.00,VWS V14.01,2013-02-01 16:31:00,
2013-02-01 08:36:00,29.4,25.7,31.09,SSW,198,0.0,0.0,86,0.00,,---,0.00,VWS V14.01,2013-02-01 16:36:00,
2013-02-01 08:41:00,29.7,25.8,31.10,SSW,213,0.0,0.0,85,0.00,,---,0.00,VWS V14.01,2013-02-01 16:41:00,
2013-02-01 08:46:00,29.8,25.6,31.10,South,190,0.0,0.0,84,0.00,,---,0.00,VWS V14.01,2013-02-01 16:46:00,
2013-02-01 08:51:00,30.1,25.6,31.10,SSW,210,0.0,0.0,83,0.00,,---,0.00,VWS V14.01,2013-02-01 16:51:00,
2013-02-01 08:56:00,30.4,25.9,31.10,SW,214,0.0,0.0,83,0.00,,---,0.00,VWS V14.01,2013-02-01 16:56:00,
2013-02-01 09:01:00,30.6,25.8,31.10,SW,218,0.0,0.0,82,0.00,,---,0.00,VWS V14.01,2013-02-01 17:01:00,
2013-02-01 09:06:00,30.7,25.6,31.10,SSW,198,0.0,0.0,81,0.00,,---,0.00,VWS V14.01,2013-02-01 17:06:00,
2013-02-01 09:11:00,31.0,25.9,31.10,SW,215,0.0,0.0,81,0.00,,---,0.00,VWS V14.01,2013-02-01 17:11:00,
2013-02-01 09:16:00,31.3,25.9,31.10,SW,217,0.0,0.0,80,0.00,,---,0.00,VWS V14.01,2013-02-01 17:16:00,
2013-02-01 09:21:00,31.8,26.0,31.10,SSW,207,0.0,0.0,79,0.00,,---,0.00,VWS V14.01,2013-02-01 17:21:00,
2013-02-01 09:26:00,32.1,26.0,31.10,SW,216,0.0,0.0,78,0.00,,---,0.00,VWS V14.01,2013-02-01 17:26:00,
2013-02-01 09:32:00,32.5,26.4,31.10,SSW,200,0.0,0.0,78,0.00,,---,0.00,VWS V14.01,2013-02-01 17:32:00,
2013-02-01 09:37:00,32.8,26.4,31.11,SSW,207,0.0,0.0,77,0.00,,---,0.00,VWS V14.01,2013-02-01 17:37:00,
2013-02-01 09:42:00,33.2,26.5,31.11,SSW,200,0.0,0.0,76,0.00,,---,0.00,VWS V14.01,2013-02-01 17:42:00,
2013-02-01 09:47:00,33.5,26.4,31.11,SSW,194,0.0,0.0,75,0.00,,---,0.00,VWS V14.01,2013-02-01 17:47:00,
2013-02-01 09:52:00,33.8,26.4,31.11,SSW,213,0.0,0.0,74,0.00,,---,0.00,VWS V14.01,2013-02-01 17:52:00,
2013-02-01 09:57:00,34.1,26.4,31.11,South,191,0.0,0.0,73,0.00,,---,0.00,VWS V14.01,2013-02-01 17:57:00,
2013-02-01 10:02:00,34.6,27.2,31.11,SSW,193,0.0,0.0,74,0.00,,---,0.00,VWS V14.01,2013-02-01 18:02:00,
2013-02-01 10:07:00,35.0,26.9,31.12,SSW,200,0.0,0.0,72,0.00,,---,0.00,VWS V14.01,2013-02-01 18:07:00,
2013-02-01 10:12:00,35.3,27.2,31.12,South,180,0.0,0.0,72,0.00,,---,0.00,VWS V14.01,2013-02-01 18:12:00,
2013-02-01 10:17:00,35.5,27.4,31.12,SSW,193,0.0,0.0,72,0.00,,---,0.00,VWS V14.01,2013-02-01 18:17:00,
2013-02-01 10:22:00,35.6,27.1,31.12,SSW,192,0.0,0.0,71,0.00,,---,0.00,VWS V14.01,2013-02-01 18:22:00,
2013-02-01 10:27:00,35.9,27.4,31.12,SSW,192,0.0,0.0,71,0.00,,---,0.00,VWS V14.01,2013-02-01 18:27:00,
2013-02-01 10:33:00,36.2,27.7,31.13,SSW,205,0.0,0.0,71,0.00,,---,0.00,VWS V14.01,2013-02-01 18:33:00,
2013-02-01 10:38:00,36.6,28.1,31.14,SSW,205,0.0,0.0,71,0.00,,---,0.00,VWS V14.01,2013-02-01 18:38:00,
2013-02-01 10:43:00,36.9,28.4,31.14,SW,223,0.0,0.0,71,0.00,,---,0.00,VWS V14.01,2013-02-01 18:43:00,
2013-02-01 10:48:00,37.3,28.8,31.14,SSW,194,0.0,0.0,71,0.00,,---,0.00,VWS V14.01,2013-02-01 18:48:00,
2013-02-01 10:53:00,37.6,28.7,31.14,SW,214,0.0,0.0,70,0.00,,---,0.00,VWS V14.01,2013-02-01 18:53:00,
2013-02-01 10:58:00,37.9,29.0,31.14,SSW,203,0.0,0.0,70,0.00,,---,0.00,VWS V14.01,2013-02-01 18:58:00,
2013-02-01 11:03:00,38.3,29.4,31.14,SSW,201,0.0,0.0,70,0.00,,---,0.00,VWS V14.01,2013-02-01 19:03:00,
2013-02-01 11:08:00,38.8,29.5,31.14,SSW,198,0.0,0.0,69,0.00,,---,0.00,VWS V14.01,2013-02-01 19:08:00,
2013-02-01 11:13:00,39.1,29.8,31.14,SSE,165,0.0,0.0,69,0.00,,---,0.00,VWS V14.01,2013-02-01 19:13:00,
2013-02-01 11:18:00,39.3,29.6,31.14,South,186,0.0,0.0,68,0.00,,---,0.00,VWS V14.01,2013-02-01 19:18:00,
2013-02-01 11:23:00,39.8,29.8,31.15,SSW,205,0.0,0.0,67,0.00,,---,0.00,VWS V14.01,2013-02-01 19:23:00,
2013-02-01 11:28:00,40.3,30.2,31.15,SE,145,0.0,0.0,67,0.00,,---,0.00,VWS V14.01,2013-02-01 19:28:00,
2013-02-01 11:33:00,40.6,30.1,31.15,South,178,0.0,0.0,66,0.00,,---,0.00,VWS V14.01,2013-02-01 19:33:00,
2013-02-01 11:39:00,41.1,30.2,31.15,South,173,0.0,0.0,65,0.00,,---,0.00,VWS V14.01,2013-02-01 19:39:00,
2013-02-01 11:44:00,41.3,30.4,31.15,SSE,166,0.0,0.0,65,0.00,,---,0.00,VWS V14.01,2013-02-01 19:44:00,
2013-02-01 11:49:00,41.9,30.6,31.16,SE,136,0.0,0.0,64,0.00,,---,0.00,VWS V14.01,2013-02-01 19:49:00,
2013-02-01 11:54:00,42.9,30.4,31.16,SSE,149,0.0,0.0,61,0.00,,---,0.00,VWS V14.01,2013-02-01 19:54:00,
2013-02-01 11:59:00,43.5,30.1,31.17,SE,131,0.0,0.0,59,0.00,,---,0.00,VWS V14.01,2013-02-01 19:59:00,
2013-02-01 12:04:00,43.5,30.1,31.16,East,86,0.0,0.0,59,0.00,,---,0.00,VWS V14.01,2013-02-01 20:04:00,
2013-02-01 12:09:00,43.3,30.0,31.16,East,80,0.0,0.0,59,0.00,,---,0.00,VWS V14.01,2013-02-01 20:09:00,
2013-02-01 12:14:00,43.3,30.4,31.16,NE,54,0.0,0.0,60,0.00,,---,0.00,VWS V14.01,2013-02-01 20:14:00,
2013-02-01 12:19:00,43.1,30.2,31.16,ENE,78,0.0,0.0,60,0.00,,---,0.00,VWS V14.01,2013-02-01 20:19:00,
2013-02-01 12:24:00,42.8,29.9,31.16,ENE,69,0.0,0.0,60,0.00,,---,0.00,VWS V14.01,2013-02-01 20:24:00,
2013-02-01 12:29:00,42.8,30.3,31.16,NE,55,0.0,0.0,61,0.00,,---,0.00,VWS V14.01,2013-02-01 20:29:00,
2013-02-01 12:34:00,42.9,30.0,31.16,ENE,61,0.0,0.0,60,0.00,,---,0.00,VWS V14.01,2013-02-01 20:34:00,
2013-02-01 12:39:00,42.8,29.9,31.16,ENE,68,0.0,0.0,60,0.00,,---,0.00,VWS V14.01,2013-02-01 20:39:00,
2013-02-01 12:44:00,43.1,29.8,31.16,NE,48,0.0,0.0,59,0.00,,---,0.00,VWS V14.01,2013-02-01 20:44:00,
2013-02-01 12:50:00,43.2,29.9,31.16,ENE,63,0.0,0.0,59,0.00,,---,0.00,VWS V14.01,2013-02-01 20:50:00,
2013-02-01 12:55:00,43.3,29.5,31.16,NE,49,0.0,0.0,58,0.00,,---,0.00,VWS V14.01,2013-02-01 20:55:00,
2013-02-01 13:00:00,43.3,29.1,31.16,NE,49,0.0,0.0,57,0.00,,---,0.00,VWS V14.01,2013-02-01 21:00:00,
2013-02-01 13:05:00,43.3,29.1,31.15,NE,53,0.0,0.0,57,0.00,,---,0.00,VWS V14.01,2013-02-01 21:05:00,
2013-02-01 13:10:00,43.5,28.9,31.15,East,81,0.0,0.0,56,0.00,,---,0.00,VWS V14.01,2013-02-01 21:10:00,
2013-02-01 13:15:00,43.6,28.5,31.15,ENE,78,0.0,0.0,55,0.00,,---,0.00,VWS V14.01,2013-02-01 21:15:00,
2013-02-01 13:20:00,43.6,28.5,31.15,ENE,63,0.0,0.0,55,0.00,,---,0.00,VWS V14.01,2013-02-01 21:20:00,
2013-02-01 13:25:00,43.8,28.2,31.15,NE,47,0.0,0.0,54,0.00,,---,0.00,VWS V14.01,2013-02-01 21:25:00,
2013-02-01 13:30:00,43.9,28.4,31.15,ENE,69,0.0,0.0,54,0.00,,---,0.00,VWS V14.01,2013-02-01 21:30:00,
2013-02-01 13:35:00,44.1,28.1,31.15,East,87,0.0,0.0,53,0.00,,---,0.00,VWS V14.01,2013-02-01 21:35:00,
2013-02-01 13:41:00,44.2,28.2,31.15,ENE,63,0.0,0.0,53,0.00,,---,0.00,VWS V14.01,2013-02-01 21:41:00,
2013-02-01 13:46:00,44.1,28.1,31.15,ENE,69,0.0,0.0,53,0.00,,---,0.00,VWS V14.01,2013-02-01 21:46:00,
2013-02-01 13:51:00,44.5,28.0,31.16,East,81,0.0,0.0,52,0.00,,---,0.00,VWS V14.01,2013-02-01 21:51:00,
2013-02-01 13:56:00,44.5,27.0,31.16,ENE,78,0.0,0.0,50,0.00,,---,0.00,VWS V14.01,2013-02-01 21:56:00,
2013-02-01 14:01:00,44.5,27.0,31.16,ENE,78,0.0,0.0,50,0.00,,---,0.00,VWS V14.01,2013-02-01 22:01:00,
2013-02-01 14:06:00,44.9,27.4,31.16,ENE,76,0.0,0.0,50,0.00,,---,0.00,VWS V14.01,2013-02-01 22:06:00,
2013-02-01 14:11:00,44.8,26.8,31.16,ENE,73,0.0,0.0,49,0.00,,---,0.00,VWS V14.01,2013-02-01 22:11:00,
2013-02-01 14:16:00,44.8,26.8,31.16,ENE,57,0.0,0.0,49,0.00,,---,0.00,VWS V14.01,2013-02-01 22:16:00,
2013-02-01 14:21:00,44.6,27.1,31.16,NE,48,0.0,0.0,50,0.00,,---,0.00,VWS V14.01,2013-02-01 22:21:00,
2013-02-01 14:26:00,44.5,27.0,31.16,ENE,57,0.0,0.0,50,0.00,,---,0.00,VWS V14.01,2013-02-01 22:26:00,
2013-02-01 14:31:00,44.6,27.1,31.16,ENE,61,0.0,0.0,50,0.00,,---,0.00,VWS V14.01,2013-02-01 22:31:00,
2013-02-01 14:36:00,44.9,27.4,31.16,ENE,59,0.0,0.0,50,0.00,,---,0.00,VWS V14.01,2013-02-01 22:36:00,
2013-02-01 14:42:00,44.8,26.8,31.16,ENE,65,0.0,0.0,49,0.00,,---,0.00,VWS V14.01,2013-02-01 22:42:00,
2013-02-01 14:47:00,44.8,26.3,31.16,ENE,74,0.0,0.0,48,0.00,,---,0.00,VWS V14.01,2013-02-01 22:47:00,
2013-02-01 14:52:00,44.9,26.4,31.16,NE,54,0.0,0.0,48,0.00,,---,0.00,VWS V14.01,2013-02-01 22:52:00,
2013-02-01 14:57:00,44.8,25.8,31.16,NE,46,0.0,0.0,47,0.00,,---,0.00,VWS V14.01,2013-02-01 22:57:00,
2013-02-01 15:02:00,44.6,25.1,31.16,NE,46,0.0,0.0,46,0.00,,---,0.00,VWS V14.01,2013-02-01 23:02:00,
2013-02-01 15:07:00,44.9,24.9,31.16,ENE,71,0.0,0.0,45,0.00,,---,0.00,VWS V14.01,2013-02-01 23:07:00,
2013-02-01 15:12:00,44.9,24.3,31.16,ENE,69,0.0,0.0,44,0.00,,---,0.00,VWS V14.01,2013-02-01 23:12:00,
2013-02-01 15:17:00,45.1,24.0,31.16,ENE,63,0.0,0.0,43,0.00,,---,0.00,VWS V14.01,2013-02-01 23:17:00,
2013-02-01 15:22:00,44.9,24.3,31.16,ENE,63,0.0,0.0,44,0.00,,---,0.00,VWS V14.01,2013-02-01 23:22:00,
2013-02-01 15:27:00,44.8,25.3,31.16,East,87,0.0,0.0,46,0.00,,---,0.00,VWS V14.01,2013-02-01 23:27:00,
2013-02-01 15:32:00,45.1,24.5,31.16,ENE,78,0.0,0.0,44,0.00,,---,0.00,VWS V14.01,2013-02-01 23:32:00,
2013-02-01 15:37:00,45.1,24.5,31.16,NE,41,0.0,0.0,44,0.00,,---,0.00,VWS V14.01,2013-02-01 23:37:00,
2013-02-01 15:42:00,45.1,24.5,31.16,NE,49,0.0,0.0,44,0.00,,---,0.00,VWS V14.01,2013-02-01 23:42:00,
2013-02-01 15:48:00,45.1,24.5,31.16,ENE,70,0.0,0.0,44,0.00,,---,0.00,VWS V14.01,2013-02-01 23:48:00,
2013-02-01 15:53:00,45.2,23.5,31.16,ENE,65,0.0,0.0,42,0.00,,---,0.00,VWS V14.01,2013-02-01 23:53:00,
2013-02-01 15:58:00,45.1,23.4,31.16,ENE,65,0.0,0.0,42,0.00,,---,0.00,VWS V14.01,2013-02-01 23:58:00,
2013-02-01 16:03:00,44.9,23.2,16.69,ENE,62,0.0,0.0,42,0.00,,---,0.00,VWS V14.01,2013-02-02 00:03:00,
2013-02-01 16:08:00,44.9,22.6,16.69,ENE,63,0.0,0.0,41,0.00,,---,0.00,VWS V14.01,2013-02-02 00:08:00,
2013-02-01 16:13:00,45.1,22.8,16.69,ENE,71,0.0,0.0,41,0.00,,---,0.00,VWS V14.01,2013-02-02 00:13:00,
2013-02-01 16:18:00,45.1,22.8,31.15,ENE,61,0.0,0.0,41,0.00,,---,0.00,VWS V14.01,2013-02-02 00:18:00,
2013-02-01 16:23:00,44.8,22.5,31.15,ENE,57,0.0,0.0,41,0.00,,---,0.00,VWS V14.01,2013-02-02 00:23:00,
2013-02-01 16:28:00,44.6,21.2,31.16,ENE,71,0.0,0.0,39,0.00,,---,0.00,VWS V14.01,2013-02-02 00:28:00,
2013-02-01 16:33:00,44.8,21.4,31.15,ENE,71,0.0,0.0,39,0.00,,---,0.00,VWS V14.01,2013-02-02 00:33:00,
2013-02-01 16:38:00,44.8,22.5,31.15,ENE,67,0.0,0.0,41,0.00,,---,0.00,VWS V14.01,2013-02-02 00:38:00,
2013-02-01 16:43:00,44.6,23.5,31.15,ENE,69,0.0,0.0,43,0.00,,---,0.00,VWS V14.01,2013-02-02 00:43:00,
2013-02-01 16:48:00,44.5,24.5,31.16,ENE,69,0.0,0.0,45,0.00,,---,0.00,VWS V14.01,2013-02-02 00:48:00,
2013-02-01 16:54:00,44.5,24.5,31.16,ENE,69,0.0,0.0,45,0.00,,---,0.00,VWS V14.01,2013-02-02 00:54:00,
2013-02-01 16:59:00,44.5,25.0,31.16,ENE,69,0.0,0.0,46,0.00,,---,0.00,VWS V14.01,2013-02-02 00:59:00,
2013-02-01 17:04:00,44.5,25.5,31.16,ENE,69,0.0,0.0,47,0.00,,---,0.00,VWS V14.01,2013-02-02 01:04:00,
2013-02-01 17:09:00,44.5,26.0,31.14,ENE,69,0.0,0.0,48,0.00,,---,0.00,VWS V14.01,2013-02-02 01:09:00,
2013-02-01 17:14:00,44.3,25.9,31.12,ENE,64,0.0,0.0,48,0.00,,---,0.00,VWS V14.01,2013-02-02 01:14:00,
2013-02-01 17:19:00,44.2,26.3,31.12,ENE,59,0.0,0.0,49,0.00,,---,0.00,VWS V14.01,2013-02-02 01:19:00,
2013-02-01 17:24:00,44.2,26.3,31.12,ENE,58,0.0,0.0,49,0.00,,---,0.00,VWS V14.01,2013-02-02 01:24:00,
2013-02-01 17:29:00,44.1,26.2,31.12,ENE,58,0.0,0.0,49,0.00,,---,0.00,VWS V14.01,2013-02-02 01:29:00,
2013-02-01 17:34:00,44.1,25.7,31.12,ENE,58,0.0,0.0,48,0.00,,---,0.00,VWS V14.01,2013-02-02 01:34:00,
2013-02-01 17:39:00,43.9,25.5,31.13,NE,56,0.0,0.0,48,0.00,,---,0.00,VWS V14.01,2013-02-02 01:39:00,
2013-02-01 17:44:00,43.3,25.9,31.12,NNE,30,0.0,0.0,50,0.00,,---,0.00,VWS V14.01,2013-02-02 01:44:00,
2013-02-01 17:49:00,42.9,27.0,31.12,NNE,30,0.0,0.0,53,0.00,,---,0.00,VWS V14.01,2013-02-02 01:49:00,
2013-02-01 17:54:00,42.5,27.5,31.12,NNE,30,0.0,0.0,55,0.00,,---,0.00,VWS V14.01,2013-02-02 01:54:00,
2013-02-01 17:59:00,42.3,27.7,31.11,NNE,31,0.0,0.0,56,0.00,,---,0.00,VWS V14.01,2013-02-02 01:59:00,
2013-02-01 18:04:00,42.2,27.6,31.10,NNE,31,0.0,0.0,56,0.00,,---,0.00,VWS V14.01,2013-02-02 02:04:00,
2013-02-01 18:09:00,42.1,28.0,31.10,NNE,32,0.0,0.0,57,0.00,,---,0.00,VWS V14.01,2013-02-02 02:09:00,
2013-02-01 18:14:00,42.1,28.0,31.10,NNE,32,0.0,0.0,57,0.00,,---,0.00,VWS V14.01,2013-02-02 02:14:00,
2013-02-01 18:19:00,41.9,28.6,31.10,NNE,32,0.0,0.0,59,0.00,,---,0.00,VWS V14.01,2013-02-02 02:19:00,
2013-02-01 18:24:00,41.8,28.5,31.10,NNE,32,0.0,0.0,59,0.00,,---,0.00,VWS V14.01,2013-02-02 02:24:00,
2013-02-01 18:30:00,41.6,28.8,31.10,NNE,32,0.0,0.0,60,0.00,,---,0.00,VWS V14.01,2013-02-02 02:30:00,
2013-02-01 18:35:00,41.3,28.9,31.10,NNE,32,0.0,0.0,61,0.00,,---,0.00,VWS V14.01,2013-02-02 02:35:00,
2013-02-01 18:40:00,41.1,28.7,31.09,NNE,32,0.0,0.0,61,0.00,,---,0.00,VWS V14.01,2013-02-02 02:40:00,
2013-02-01 18:45:00,40.6,28.6,31.09,NNE,32,0.0,0.0,62,0.00,,---,0.00,VWS V14.01,2013-02-02 02:45:00,
2013-02-01 18:50:00,40.2,28.6,31.09,NNE,28,0.0,0.0,63,0.00,,---,0.00,VWS V14.01,2013-02-02 02:50:00,
2013-02-01 18:55:00,39.8,28.2,31.09,NNE,18,0.0,0.0,63,0.00,,---,0.00,VWS V14.01,2013-02-02 02:55:00,
2013-02-01 19:00:00,39.5,28.0,31.09,NNE,17,0.0,0.0,63,0.00,,---,0.00,VWS V14.01,2013-02-02 03:00:00,
2013-02-01 19:05:00,39.2,28.1,31.09,NNE,13,0.0,0.0,64,0.00,,---,0.00,VWS V14.01,2013-02-02 03:05:00,
2013-02-01 19:10:00,39.2,29.5,31.10,NNE,12,0.0,0.0,68,0.00,,---,0.00,VWS V14.01,2013-02-02 03:10:00,
2013-02-01 19:15:00,39.2,29.5,31.10,NNE,12,0.0,0.0,68,0.00,,---,0.00,VWS V14.01,2013-02-02 03:15:00,
2013-02-01 19:20:00,39.1,29.8,31.09,North,11,0.0,0.0,69,0.00,,---,0.00,VWS V14.01,2013-02-02 03:20:00,
2013-02-01 19:26:00,39.1,30.5,31.09,North,11,0.0,0.0,71,0.00,,---,0.00,VWS V14.01,2013-02-02 03:26:00,
2013-02-01 19:31:00,38.9,30.7,31.09,North,11,0.0,0.0,72,0.00,,---,0.00,VWS V14.01,2013-02-02 03:31:00,
2013-02-01 19:36:00,38.8,31.2,31.09,North,11,0.0,0.0,74,0.00,,---,0.00,VWS V14.01,2013-02-02 03:36:00,
2013-02-01 19:41:00,38.8,30.9,31.09,North,11,0.0,0.0,73,0.00,,---,0.00,VWS V14.01,2013-02-02 03:41:00,
2013-02-01 19:46:00,38.8,30.9,31.09,North,11,0.0,0.0,73,0.00,,---,0.00,VWS V14.01,2013-02-02 03:46:00,
2013-02-01 19:51:00,38.6,31.0,31.09,North,10,0.0,0.0,74,0.00,,---,0.00,VWS V14.01,2013-02-02 03:51:00,
2013-02-01 19:56:00,38.6,31.0,31.09,North,10,0.0,0.0,74,0.00,,---,0.00,VWS V14.01,2013-02-02 03:56:00,
2013-02-01 20:01:00,38.3,30.8,31.09,North,10,0.0,0.0,74,0.00,,---,0.00,VWS V14.01,2013-02-02 04:01:00,
2013-02-01 20:07:00,38.5,31.0,31.12,North,9,0.0,0.0,74,0.00,,---,0.00,VWS V14.01,2013-02-02 04:07:00,
2013-02-01 20:12:00,38.5,31.0,31.12,North,9,0.0,0.0,74,0.00,,---,0.00,VWS V14.01,2013-02-02 04:12:00,
2013-02-01 20:17:00,38.3,30.8,31.11,North,9,0.0,0.0,74,0.00,,---,0.00,VWS V14.01,2013-02-02 04:17:00,
2013-02-01 20:22:00,37.8,30.3,31.11,North,9,0.0,0.0,74,0.00,,---,0.00,VWS V14.01,2013-02-02 04:22:00,
2013-02-01 20:27:00,36.9,30.0,31.11,North,9,0.0,0.0,76,0.00,,---,0.00,VWS V14.01,2013-02-02 04:27:00,
2013-02-01 20:32:00,36.6,30.1,31.11,North,9,0.0,0.0,77,0.00,,---,0.00,VWS V14.01,2013-02-02 04:32:00,
2013-02-01 20:37:00,36.5,30.0,31.11,North,9,0.0,0.0,77,0.00,,---,0.00,VWS V14.01,2013-02-02 04:37:00,
2013-02-01 20:42:00,35.9,29.4,31.10,North,5,0.0,0.0,77,0.00,,---,0.00,VWS V14.01,2013-02-02 04:42:00,
2013-02-01 20:47:00,35.9,29.7,31.09,North,5,0.0,0.0,78,0.00,,---,0.00,VWS V14.01,2013-02-02 04:47:00,
2013-02-01 20:53:00,36.2,29.7,31.09,North,5,0.0,0.0,77,0.00,,---,0.00,VWS V14.01,2013-02-02 04:53:00,
2013-02-01 20:58:00,36.2,29.7,31.09,North,5,0.0,0.0,77,0.00,,---,0.00,VWS V14.01,2013-02-02 04:58:00,
2013-02-01 21:00:00,36.2,29.7,31.09,North,5,0.0,0.0,77,0.00,,---,0.00,VWS V14.01,2013-02-02 05:00:00,
2013-02-01 21:01:00,36.3,29.8,31.09,North,5,0.0,0.0,77,0.00,,---,0.00,VWS V14.01,2013-02-02 05:01:00,
2013-02-01 21:06:00,36.8,30.0,31.13,NW,326,0.0,0.0,76,0.00,,---,0.00,VWS V14.01,2013-02-02 05:06:00,
2013-02-01 21:11:00,36.9,30.0,31.13,NW,323,0.0,0.0,76,0.00,,---,0.00,VWS V14.01,2013-02-02 05:11:00,
2013-02-01 21:16:00,36.9,30.4,31.13,NW,323,0.0,0.0,77,0.00,,---,0.00,VWS V14.01,2013-02-02 05:16:00,
2013-02-01 21:21:00,36.9,30.4,31.13,NW,323,0.0,0.0,77,0.00,,---,0.00,VWS V14.01,2013-02-02 05:21:00,
2013-02-01 21:26:00,36.9,30.7,31.13,NW,323,0.0,0.0,78,0.00,,---,0.00,VWS V14.01,2013-02-02 05:26:00,
2013-02-01 21:31:00,36.5,30.0,31.13,NW,323,0.0,0.0,77,0.00,,---,0.00,VWS V14.01,2013-02-02 05:31:00,
2013-02-01 21:37:00,36.0,29.5,31.12,NW,323,0.0,0.0,77,0.00,,---,0.00,VWS V14.01,2013-02-02 05:37:00,
2013-02-01 21:42:00,36.0,29.8,31.12,NW,323,0.0,0.0,78,0.00,,---,0.00,VWS V14.01,2013-02-02 05:42:00,
2013-02-01 21:47:00,35.9,29.7,31.12,NW,323,0.0,0.0,78,0.00,,---,0.00,VWS V14.01,2013-02-02 05:47:00,
2013-02-01 21:52:00,35.9,29.7,31.12,NW,323,0.0,0.0,78,0.00,,---,0.00,VWS V14.01,2013-02-02 05:52:00,
2013-02-01 21:57:00,35.9,30.0,31.12,NW,323,0.0,0.0,79,0.00,,---,0.00,VWS V14.01,2013-02-02 05:57:00,
2013-02-01 22:02:00,35.8,29.9,31.12,NW,323,0.0,0.0,79,0.00,,---,0.00,VWS V14.01,2013-02-02 06:02:00,
2013-02-01 22:07:00,35.8,30.2,31.14,NW,323,0.0,0.0,80,0.00,,---,0.00,VWS V14.01,2013-02-02 06:07:00,
2013-02-01 22:12:00,35.8,30.2,31.14,NW,323,0.0,0.0,80,0.00,,---,0.00,VWS V14.01,2013-02-02 06:12:00,
2013-02-01 22:17:00,35.6,30.0,31.14,NW,323,0.0,0.0,80,0.00,,---,0.00,VWS V14.01,2013-02-02 06:17:00,
2013-02-01 22:22:00,35.6,30.0,31.14,NW,323,0.0,0.0,80,0.00,,---,0.00,VWS V14.01,2013-02-02 06:22:00,
2013-02-01 22:27:00,35.5,29.6,31.14,NW,323,0.0,0.0,79,0.00,,---,0.00,VWS V14.01,2013-02-02 06:27:00,
2013-02-01 22:32:00,35.5,30.0,31.14,NW,323,0.0,0.0,80,0.00,,---,0.00,VWS V14.01,2013-02-02 06:32:00,
2013-02-01 22:37:00,35.5,30.3,31.14,NW,323,0.0,0.0,81,0.00,,---,0.00,VWS V14.01,2013-02-02 06:37:00,
2013-02-01 22:42:00,35.5,30.3,31.14,NW,323,0.0,0.0,81,0.00,,---,0.00,VWS V14.01,2013-02-02 06:42:00,
2013-02-01 22:48:00,35.3,29.8,31.14,NW,323,0.0,0.0,80,0.00,,---,0.00,VWS V14.01,2013-02-02 06:48:00,
2013-02-01 22:53:00,35.3,30.1,31.14,NW,323,0.0,0.0,81,0.00,,---,0.00,VWS V14.01,2013-02-02 06:53:00,
2013-02-01 22:58:00,35.2,30.0,31.14,NW,323,0.0,0.0,81,0.00,,---,0.00,VWS V14.01,2013-02-02 06:58:00,
2013-02-01 23:03:00,35.0,29.8,31.14,NW,323,0.0,0.0,81,0.00,,---,0.00,VWS V14.01,2013-02-02 07:03:00,
2013-02-01 23:08:00,35.0,30.1,31.16,NW,323,0.0,0.0,82,0.00,,---,0.00,VWS V14.01,2013-02-02 07:08:00,
2013-02-01 23:13:00,34.9,30.0,31.16,NW,323,0.0,0.0,82,0.00,,---,0.00,VWS V14.01,2013-02-02 07:13:00,
2013-02-01 23:18:00,34.7,29.8,31.16,NW,323,0.0,0.0,82,0.00,,---,0.00,VWS V14.01,2013-02-02 07:18:00,
2013-02-01 23:23:00,34.7,30.1,31.16,NW,323,0.0,0.0,83,0.00,,---,0.00,VWS V14.01,2013-02-02 07:23:00,
2013-02-01 23:28:00,34.7,30.1,31.16,NW,323,0.0,0.0,83,0.00,,---,0.00,VWS V14.01,2013-02-02 07:28:00,
2013-02-01 23:33:00,34.7,30.1,31.16,NW,323,0.0,0.0,83,0.00,,---,0.00,VWS V14.01,2013-02-02 07:33:00,
2013-02-01 23:39:00,34.6,30.0,31.16,NW,323,0.0,0.0,83,0.00,,---,0.00,VWS V14.01,2013-02-02 07:39:00,
2013-02-01 23:44:00,34.6,30.0,31.16,NW,323,0.0,0.0,83,0.00,,---,0.00,VWS V14.01,2013-02-02 07:44:00,
2013-02-01 23:49:00,34.4,29.8,31.16,NW,323,0.0,0.0,83,0.00,,---,0.00,VWS V14.01,2013-02-02 07:49:00,
2013-02-01 23:54:00,34.4,30.1,31.16,NW,323,0.0,0.0,84,0.00,,---,0.00,VWS V14.01,2013-02-02 07:54:00,
2013-02-01 23:59:00,34.4,30.1,31.16,NW,323,0.0,0.0,84,0.00,,---,0.00,VWS V14.01,2013-02-02 07:59:00,